Location: Corona
(40.7470°N, 73.8601°W)
Time: 07:46:03
(UTC+00:00)

Aureole 1 Rocket - Pass Details

Date: 22 September 2019
Orbit: 379 x 1383 km, 73.9° (Epoch: 18 October)

Event Time Altitude Azimuth Distance (km) Brightness Sun altitude
Rises 23:28:26 0° 337° (NNW) 3,222 7.2 -7.5°
Reaches altitude 10° 23:31:07 10° 334° (NNW) 2,121 6.3 -8.0°
Maximum altitude 23:35:41 60° 255° (WSW) 639 3.5 -8.9°
Drops below altitude 10° 23:39:12 10° 175° (S) 1,642 5.1 -9.6°
Sets 23:41:04 0° 171° (S) 2,424 5.9 -9.9°
